sat.trackr.live / text

‹ back to catalog

FLOCK 4G-28

NORAD 62634 · 2025-009AB

PAYLOAD ACTIVE UNKNOWN

§ Identity

Operator
Country
US
Launch date
2025-01-14
Launch site
AFWTR
Launch vehicle
Mass (kg)
RCS (m²)

Purposes: earth_obs

External: N2YO · Heavens-Above · Gunter

§ Orbital elements

Epoch: 2026-05-24T23:21:52.545312Z

Period
93.85 min
Inclination
97.4021°
Eccentricity
0.0002727
Mean motion
15.34396269 rev/d
Perigee alt
460.8 km
Apogee alt
464.6 km
Semi-major
6,840.9 km
B*
2.2308e-4
RAAN
229.4428°
Arg perigee
64.1943°
Mean anomaly
295.9581°
Rev number
7,552

§ Raw data

FLOCK 4G-281 62634U 25009AB  26144.97352483  .00007351  00000+0  22308-3 0  99982 62634  97.4021 229.4428 0002727  64.1943 295.9581 15.34396269 75528

JSON: /api/v1/satellites/62634 · /tle

For live sub-satellite position, see the globe view (requires WebGL).

§ Visibility from observer

Set your observer location to see the next 7 days of passes ≥ 10°. The values pass through the URL so the page stays shareable.

No JS? Fill the form by hand. The geolocation button needs JavaScript.